Temperature
2 3 3 3 4 5 4 5 5 6 7 8 8 8 8 8 9 10 10 11 12 13 14 14 15 15 16 16 16 16 16 15 15 15 15 14 14 13 13 12 12 12 11 11
1 3 3 3 4 5 5 5 5 6 6 7 8 8 7 8 8 9 9 10 11 12 13 13 14 14 15 15 15 15 15 15 15 15 14 14 14 13 13 12 12 11 11 11
0 2 2 3 4 5 5 5 5 5 6 7 7 7 7 7 7 8 9 9 10 11 11 13 14 14 14 15 15 15 15 15 14 14 14 14 13 13 12 12 12 11 11 10
-0 1 1 3 4 5 5 5 5 5 6 6 6 7 7 7 7 7 8 8 9 10 11 12 13 13 14 14 14 14 14 14 14 14 13 13 13 12 12 12 11 11 11 11
-1 -0 1 3 4 4 4 4 4 5 5 5 6 7 7 7 7 7 7 8 9 10 10 11 12 13 13 13 13 13 13 13 13 13 13 13 12 12 12 11 11 11 11 10
-1 0 1 3 4 4 4 3 4 4 4 4 5 5 5 6 6 7 7 8 8 9 10 11 11 12 12 13 12 13 13 13 13 13 13 12 12 12 11 11 11 11 10 10
-1 -0 1 2 3 4 3 2 3 4 4 4 4 4 5 5 6 6 7 7 8 9 9 10 11 11 12 12 12 12 12 12 12 12 12 12 12 11 11 11 10 10 10 10
-1 -0 1 2 3 2 2 3 4 4 4 4 4 4 4 5 5 6 6 7 7 8 9 9 10 10 11 11 11 11 11 11 11 11 11 11 11 11 10 10 10 10 9 9
-0 1 2 3 3 3 4 3 4 4 4 4 3 3 3 4 4 5 5 6 7 7 8 9 9 10 10 10 10 11 11 11 11 10 10 10 10 10 10 10 9 9 9 8
-0 0 1 3 3 3 3 3 4 4 4 4 3 3 3 3 4 4 4 5 6 7 7 8 8 9 9 10 10 10 10 10 10 10 10 9 9 9 9 9 9 9 8 8
-1 0 1 2 3 3 3 3 3 3 3 3 3 3 3 3 3 3 4 5 5 6 6 7 8 8 9 9 9 9 9 9 9 9 9 9 9 9 9 9 9 9 9 8
-0 0 0 1 2 2 2 2 3 3 3 3 3 3 3 3 3 3 3 4 5 5 6 6 7 8 8 8 8 9 8 8 8 8 8 8 8 8 8 8 8 8 8 7
1 1 1 1 1 1 1 2 2 2 2 2 2 2 2 2 3 3 3 4 4 5 5 6 6 7 7 8 8 8 8 8 8 7 7 7 7 7 7 7 7 7 7 6
1 1 0 0 1 1 1 1 1 1 1 1 2 2 2 2 2 2 3 3 3 4 4 5 6 6 7 7 7 7 7 7 7 7 7 7 6 6 6 6 6 6 6 5
0 -0 -0 -0 0 0 0 0 0 0 1 1 1 1 1 1 2 2 2 3 3 3 3 4 5 5 6 6 6 6 6 7 6 6 6 6 6 5 6 6 6 5 5 5
-1 -1 -1 -1 -1 -1 -1 -1 -1 -0 -0 0 0 0 0 1 1 1 2 2 2 3 3 3 4 5 5 5 5 5 6 6 6 6 5 5 5 5 5 5 5 5 5 5
-2 -2 -2 -2 -2 -2 -2 -1 -1 -1 -1 -1 -0 0 0 0 0 1 1 2 2 2 3 3 4 4 4 5 5 5 5 5 5 5 5 5 5 4 5 5 5 5 5 4
-2 -2 -2 -3 -2 -2 -2 -2 -2 -2 -1 -1 -1 -1 -1 -0 -0 0 0 1 1 2 2 3 3 3 4 4 4 4 4 4 4 4 4 4 4 4 4 4 4 4 4 4
-3 -3 -3 -3 -3 -3 -3 -3 -3 -2 -2 -2 -1 -1 -1 -1 -1 -0 -0 0 1 1 2 2 3 3 3 3 4 4 4 4 4 3 3 3 3 3 3 3 4 4 4 3
-4 -4 -4 -4 -4 -4 -4 -4 -3 -3 -3 -2 -2 -2 -2 -1 -1 -1 -1 -0 0 1 1 2 2 2 2 3 3 3 3 3 3 3 3 3 3 3 3 3 3 3 3 3
-5 -5 -5 -5 -5 -5 -4 -4 -4 -4 -3 -3 -3 -2 -2 -2 -2 -1 -1 -1 0 0 1 1 1 1 2 2 2 2 2 2 3 3 2 2 2 2 3 3 3 3 3 2
-6 -6 -6 -6 -5 -5 -5 -5 -4 -4 -4 -4 -3 -3 -3 -2 -2 -2 -1 -1 -1 -0 0 1 1 1 1 1 1 2 2 2 2 2 2 2 2 2 3 3 3 2 2 2
-6 -6 -6 -6 -6 -6 -5 -5 -5 -4 -4 -4 -4 -3 -3 -3 -2 -2 -2 -1 -1 -1 -0 0 0 0 1 1 1 1 1 1 1 2 2 2 2 2 2 2 2 2 2 1
-7 -7 -7 -7 -7 -6 -6 -6 -5 -5 -5 -4 -4 -4 -3 -3 -3 -2 -2 -2 -1 -1 -1 -0 -0 0 0 0 1 1 1 1 1 1 1 2 2 2 2 2 2 1 1 1
-8 -8 -7 -7 -7 -7 -7 -6 -6 -5 -5 -5 -4 -4 -4 -3 -3 -2 -2 -2 -2 -1 -1 -1 -1 -1 -1 -0 -0 0 0 0 1 1 1 1 1 1 1 1 1 1 0 0
-8 -8 -8 -8 -8 -7 -7 -7 -6 -6 -5 -5 -5 -4 -4 -3 -3 -3 -3 -2 -2 -2 -2 -2 -2 -1 -1 -1 -1 -0 -0 -0 0 0 1 1 1 1 1 1 0 0 -0 -0
-9 -8 -8 -8 -8 -7 -7 -7 -6 -6 -6 -6 -5 -5 -4 -4 -4 -3 -3 -3 -3 -3 -3 -2 -2 -2 -2 -1 -1 -1 -1 -0 -0 -0 -0 -0 0 -0 -0 -0 -1 -1 -1 -1
Wind_Speed
10 11 9 12 15 13 13 13 11 11 13 15 11 8 7 7 8 6 5 4 3 3 4 4 4 6 9 10 11 12 13 14 15 14 13 13 13 13 13 13 13 13 12 11
8 9 10 13 15 15 15 14 14 14 15 11 9 6 6 7 7 6 5 5 5 4 3 4 5 5 7 9 10 11 13 13 12 12 12 13 13 13 13 12 12 12 12 12
5 7 7 8 9 11 10 9 10 12 12 8 8 7 6 6 7 7 6 6 6 5 4 5 5 5 7 8 8 10 11 11 11 12 12 12 12 12 13 12 11 11 11 11
4 3 6 6 4 5 8 8 7 7 8 8 10 8 5 5 6 7 7 7 7 5 5 4 2 2 3 5 8 9 9 10 10 11 12 11 12 12 12 10 11 11 10 10
3 5 8 7 5 4 5 6 4 5 7 8 9 6 5 6 7 7 6 6 6 5 5 3 2 2 3 5 7 8 9 9 10 11 12 12 12 12 10 9 9 9 9 10
4 5 6 5 6 5 3 3 4 4 6 7 5 4 7 9 10 9 8 6 5 5 3 2 1 2 5 6 7 8 8 8 9 10 11 12 12 10 8 8 9 9 8 8
7 7 7 7 7 2 2 4 5 4 5 5 3 6 8 9 9 8 8 7 6 4 3 2 1 2 4 5 7 6 6 7 7 9 10 10 9 8 9 8 9 8 8 7
6 7 8 4 1 1 4 4 4 4 4 5 6 6 7 8 8 9 9 7 6 4 4 3 1 3 4 4 4 5 6 7 7 7 7 8 10 9 9 10 9 8 8 6
7 8 6 3 4 6 5 5 5 4 5 5 5 6 7 7 8 8 8 7 6 4 4 3 2 2 4 3 4 5 6 6 6 7 7 8 10 10 9 8 8 8 8 7
6 9 9 8 7 6 5 6 6 6 6 4 5 7 8 8 7 7 8 7 5 5 5 4 3 2 3 3 4 6 7 6 7 7 7 7 7 8 8 8 8 9 9 8
9 9 9 8 7 6 7 7 7 7 6 5 5 7 8 8 8 7 7 6 5 4 5 6 4 3 2 3 5 6 6 6 6 6 7 7 5 6 7 7 9 10 9 9
11 10 9 10 8 8 8 8 8 8 8 7 6 7 8 8 8 7 7 7 6 6 6 6 4 4 3 4 6 7 6 6 6 6 6 6 6 4 4 5 9 10 11 10
15 14 13 14 12 9 8 9 9 8 8 9 7 7 7 8 7 7 7 7 7 7 7 6 5 4 4 4 5 7 7 7 6 6 6 7 7 7 6 5 8 10 13 13
12 11 12 11 11 10 10 10 9 8 8 8 8 7 7 7 8 7 8 7 7 6 6 6 5 5 4 4 5 5 6 7 7 7 7 7 7 7 7 8 7 5 7 13
11 11 12 11 10 9 8 8 9 9 9 8 7 7 7 8 8 9 8 7 6 6 6 5 5 5 4 4 5 5 6 6 6 6 6 6 7 7 7 7 8 7 6 8
9 8 9 9 10 10 10 9 10 10 10 9 8 8 8 8 8 9 8 6 6 6 6 5 5 5 3 4 5 5 5 8 8 7 7 7 7 7 7 8 9 8 8 8
8 9 8 9 10 10 10 10 10 10 10 10 9 8 8 7 8 8 8 6 6 6 6 5 5 4 4 4 5 5 5 7 9 8 7 7 7 8 8 8 9 8 8 9
8 10 10 10 10 11 10 10 10 10 10 9 9 8 8 8 9 9 7 6 5 5 5 5 4 4 4 4 5 5 6 6 7 7 7 7 7 7 8 8 9 9 8 9
7 8 9 10 10 10 10 10 10 9 9 8 9 9 8 8 8 7 6 5 5 6 5 3 4 3 4 5 6 5 6 7 7 7 7 9 8 7 8 8 9 9 9 8
8 8 9 9 9 9 9 9 8 8 8 8 8 8 8 7 6 5 5 6 6 5 4 3 3 3 4 5 6 5 7 8 8 8 7 8 8 8 8 9 9 9 9 8
9 9 10 10 10 9 8 8 8 8 8 7 7 8 8 7 6 5 4 5 5 3 3 4 3 4 4 5 6 6 7 7 8 8 8 8 8 9 9 9 9 9 8 8
8 9 10 10 9 9 8 7 7 8 7 6 7 6 6 6 5 4 5 5 3 3 3 3 3 5 6 7 5 6 7 7 7 7 7 8 8 9 9 9 9 8 8 8
8 9 10 9 9 9 9 7 7 7 7 7 6 6 6 5 4 4 4 3 2 4 3 3 5 8 9 6 5 6 7 7 7 7 7 7 8 8 9 9 8 8 8 8
9 9 9 9 8 7 8 8 7 5 5 5 5 5 4 3 2 2 2 3 4 4 3 5 9 10 9 5 6 6 6 7 7 7 7 7 7 7 8 8 8 8 8 9
8 8 8 8 7 6 7 7 6 4 3 3 3 3 2 2 2 2 2 4 6 5 4 7 10 9 6 5 6 6 6 6 7 7 7 7 7 7 7 8 8 8 8 8
7 7 7 7 6 6 5 5 4 3 2 2 1 0 1 1 3 3 3 4 5 6 5 5 6 7 5 6 6 6 6 7 7 7 7 7 8 8 7 7 8 8 8 7
7 6 6 6 5 5 5 4 3 2 2 2 1 1 2 3 3 4 5 5 5 5 5 5 5 5 6 6 7 6 6 6 6 7 7 7 7 7 7 8 7 7 7 7
Wind_Direction
256 264 257 262 261 249 233 230 236 255 263 276 295 309 317 326 329 330 330 318 301 259 227 210 201 195 189 188 183 179 181 187 193 190 187 184 183 183 183 184 186 185 185 187
273 268 266 266 257 251 247 244 243 256 264 273 289 306 316 322 326 321 315 308 304 287 235 212 208 202 192 188 183 179 183 187 184 179 179 181 182 180 180 181 181 180 184 186
272 288 295 261 247 239 238 238 236 247 261 293 296 295 299 312 318 318 322 316 302 291 263 234 217 206 199 189 176 176 181 179 176 175 178 180 177 176 179 180 178 179 183 183
268 297 247 246 271 253 246 247 254 267 285 290 286 279 278 309 316 315 320 317 308 298 287 271 235 204 190 169 168 173 175 174 173 172 174 172 172 177 179 176 177 179 179 179
232 251 268 280 285 255 240 259 294 289 300 312 309 288 283 325 325 307 302 300 299 298 290 280 245 172 153 160 163 166 172 174 174 171 169 169 173 176 174 171 173 175 174 173
226 244 252 269 298 291 217 252 323 321 314 316 336 289 286 323 327 323 323 317 314 313 313 302 285 158 154 164 167 177 178 173 170 168 169 173 174 171 166 165 168 165 165 171
228 243 262 280 304 346 177 257 297 299 301 310 284 261 284 308 318 320 323 319 319 320 310 287 256 161 168 171 185 183 163 155 161 165 167 168 164 160 156 154 154 156 156 160
217 230 250 288 36 185 242 262 275 289 299 298 292 296 303 311 318 324 324 318 320 322 316 311 261 162 173 191 185 150 146 150 156 159 157 156 156 155 152 153 154 155 153 152
213 230 251 255 230 242 250 267 271 276 281 286 296 303 310 316 317 316 314 311 315 315 315 315 301 194 189 190 150 147 147 151 151 150 153 156 158 158 156 158 161 163 164 167
249 256 262 267 266 265 267 273 278 279 280 279 286 299 306 306 306 307 307 306 314 321 316 307 301 273 207 170 153 151 155 154 153 154 155 155 158 162 165 168 168 168 170 170
252 265 279 268 255 268 274 275 281 288 281 273 282 290 294 297 296 296 300 299 297 295 291 285 287 276 217 171 156 156 157 158 157 158 159 158 158 167 169 178 177 174 175 170
251 254 259 271 274 279 277 279 283 286 288 287 275 277 288 290 290 289 294 296 294 291 288 282 272 259 225 183 167 163 164 165 164 160 158 156 149 124 111 148 158 161 161 159
248 259 261 268 274 271 271 277 281 276 273 281 280 273 280 285 286 287 289 291 287 284 284 281 270 251 221 190 178 175 175 172 167 164 163 162 159 155 145 113 125 144 152 154
249 259 266 266 269 276 276 278 280 277 274 274 276 277 277 281 283 285 285 284 281 279 278 272 261 249 223 192 182 178 173 170 170 171 168 167 167 164 162 157 150 138 146 151
252 249 258 269 271 274 275 277 280 279 279 278 273 272 275 280 283 285 284 283 281 276 271 266 257 250 222 190 179 178 175 172 167 166 165 164 161 157 157 155 152 146 136 144
267 266 266 268 271 274 275 272 271 275 278 278 274 271 271 274 279 284 282 276 274 272 269 266 259 247 216 188 177 175 175 166 165 164 162 161 160 159 160 159 157 158 159 155
268 270 272 275 273 274 272 269 267 269 271 272 270 270 272 275 279 282 279 272 266 266 265 261 256 242 210 189 180 175 168 166 162 162 167 166 165 166 166 165 165 165 164 164
261 265 267 267 270 273 275 273 269 267 265 265 268 267 266 266 268 274 276 277 277 276 269 256 237 220 203 188 176 169 167 169 170 168 165 166 165 164 165 165 163 160 157 160
287 285 283 279 276 274 273 272 270 268 268 266 262 261 260 258 261 266 271 267 261 265 270 249 219 205 190 179 166 164 163 163 164 164 163 163 163 164 165 165 163 163 160 159
299 298 295 291 287 280 276 274 273 272 267 261 259 260 260 259 258 258 258 260 256 251 243 221 194 188 180 169 157 161 163 164 166 166 165 167 167 167 166 163 162 161 161 160
302 300 297 295 291 288 281 276 273 271 271 263 256 255 255 259 254 246 244 259 267 241 213 200 187 180 172 164 154 159 162 163 165 167 167 166 165 164 163 162 161 160 159 157
300 299 296 294 291 291 287 281 273 268 267 264 258 252 248 252 250 248 246 242 241 208 187 179 173 171 165 154 152 153 155 155 156 159 162 163 162 162 162 160 159 157 156 155
299 299 298 296 292 291 291 285 275 264 259 256 251 244 241 244 237 229 246 241 202 182 164 165 160 153 146 140 146 148 149 149 151 155 156 157 157 158 157 155 154 154 154 153
300 301 301 301 298 294 293 293 286 272 260 256 252 245 237 237 249 239 214 186 172 156 152 153 146 141 131 130 136 139 141 143 145 147 146 146 146 147 149 150 149 149 149 147
301 300 302 305 304 298 295 296 294 283 270 262 261 258 242 214 203 191 164 157 152 141 140 146 139 131 124 126 128 131 133 137 139 139 139 141 141 142 144 145 145 145 146 148
300 301 300 296 294 294 294 292 284 275 257 243 250 232 132 126 136 140 136 132 131 124 121 126 129 120 118 119 120 121 124 129 127 125 130 131 132 134 137 137 137 141 143 143
301 303 306 308 307 304 299 293 283 271 243 201 168 116 107 105 110 112 113 116 115 110 109 110 110 109 110 111 112 111 111 113 116 118 121 121 125 129 131 131 133 133 135 138
Height
1418 1413 1411 1408 1403 1400 1401 1399 1399 1387 1381 1373 1372 1371 1369 1366 1362 1360 1359 1358 1358 1358 1360 1362 1364 1368 1372 1376 1381 1387 1392 1396 1401 1407 1413 1419 1424 1429 1434 1439 1443 1447 1451 1455
1414 1407 1406 1402 1395 1392 1390 1389 1387 1383 1378 1372 1371 1369 1368 1366 1363 1360 1359 1358 1357 1356 1357 1359 1361 1364 1368 1372 1376 1381 1386 1391 1396 1402 1407 1413 1418 1424 1429 1433 1438 1442 1446 1449
1416 1408 1403 1399 1388 1385 1384 1382 1381 1380 1375 1372 1371 1369 1367 1366 1363 1360 1358 1357 1355 1355 1355 1356 1358 1360 1364 1368 1372 1376 1381 1386 1391 1397 1402 1407 1413 1418 1423 1428 1432 1436 1440 1444
1418 1412 1410 1391 1382 1381 1379 1378 1377 1375 1373 1371 1369 1366 1366 1365 1363 1360 1358 1356 1354 1353 1353 1354 1355 1357 1361 1365 1368 1372 1377 1382 1387 1392 1397 1402 1407 1412 1418 1423 1427 1431 1435 1439
1416 1412 1400 1387 1381 1379 1378 1376 1376 1374 1372 1370 1367 1364 1362 1363 1362 1359 1356 1354 1353 1351 1351 1351 1352 1354 1357 1361 1365 1369 1373 1377 1382 1387 1392 1397 1402 1407 1413 1418 1422 1426 1431 1434
1413 1408 1397 1385 1378 1374 1376 1378 1376 1373 1371 1368 1366 1367 1362 1360 1359 1356 1354 1352 1350 1350 1349 1349 1350 1352 1355 1358 1361 1365 1369 1373 1377 1382 1387 1392 1397 1403 1408 1413 1417 1422 1426 1430
1409 1404 1391 1381 1376 1374 1382 1380 1374 1372 1370 1368 1366 1366 1363 1359 1357 1354 1351 1350 1349 1348 1348 1348 1349 1351 1353 1355 1358 1362 1366 1370 1374 1378 1383 1388 1393 1398 1403 1408 1413 1417 1421 1425
1403 1400 1391 1377 1376 1378 1377 1373 1371 1369 1368 1366 1363 1361 1359 1357 1354 1352 1350 1349 1347 1346 1345 1346 1347 1349 1350 1353 1356 1359 1363 1366 1371 1375 1379 1384 1389 1394 1399 1404 1408 1412 1416 1420
1392 1386 1377 1374 1374 1373 1371 1370 1368 1366 1365 1364 1362 1359 1357 1354 1352 1351 1349 1347 1346 1344 1343 1344 1345 1347 1349 1351 1354 1357 1360 1363 1367 1371 1376 1380 1385 1389 1394 1399 1403 1407 1411 1415
1384 1377 1373 1371 1370 1368 1368 1366 1364 1363 1361 1360 1358 1356 1355 1353 1351 1349 1347 1345 1344 1342 1341 1341 1343 1345 1346 1348 1351 1354 1357 1360 1364 1368 1372 1376 1381 1385 1390 1394 1398 1402 1406 1410
1378 1373 1369 1366 1366 1365 1363 1362 1360 1359 1358 1357 1355 1353 1352 1350 1348 1346 1344 1343 1341 1340 1340 1340 1341 1342 1343 1346 1348 1350 1353 1357 1360 1364 1368 1372 1377 1381 1386 1390 1394 1398 1401 1405
1371 1367 1366 1362 1361 1361 1359 1357 1356 1355 1353 1352 1351 1349 1347 1346 1344 1342 1340 1339 1338 1337 1337 1337 1337 1338 1340 1343 1345 1347 1350 1353 1357 1360 1364 1368 1373 1378 1383 1388 1392 1396 1400 1403
1362 1360 1359 1356 1355 1354 1353 1352 1351 1350 1348 1347 1346 1345 1343 1341 1339 1338 1336 1335 1334 1333 1333 1333 1333 1334 1336 1339 1341 1344 1346 1349 1353 1356 1360 1364 1368 1373 1377 1383 1388 1392 1396 1400
1355 1355 1352 1350 1349 1348 1347 1346 1345 1344 1343 1342 1341 1340 1338 1336 1334 1333 1332 1331 1330 1330 1329 1329 1329 1330 1332 1335 1337 1339 1342 1345 1349 1352 1356 1360 1365 1369 1373 1377 1382 1386 1391 1396
1348 1347 1346 1344 1343 1342 1341 1340 1339 1337 1336 1336 1335 1334 1333 1331 1329 1327 1327 1326 1326 1325 1325 1325 1325 1326 1328 1330 1332 1335 1338 1341 1345 1349 1353 1357 1361 1366 1370 1374 1378 1382 1387 1392
1341 1340 1339 1337 1336 1335 1334 1333 1332 1331 1330 1329 1328 1328 1327 1326 1324 1322 1322 1322 1321 1319 1320 1320 1321 1322 1324 1326 1328 1331 1334 1337 1341 1345 1349 1353 1357 1362 1366 1370 1374 1378 1382 1386
1336 1334 1333 1331 1330 1329 1328 1327 1326 1325 1324 1323 1322 1322 1321 1320 1318 1317 1317 1317 1316 1315 1315 1316 1316 1318 1320 1322 1324 1327 1330 1334 1337 1341 1345 1349 1353 1358 1362 1366 1370 1374 1379 1383
1330 1329 1327 1326 1324 1322 1321 1320 1319 1318 1317 1317 1316 1315 1314 1313 1312 1311 1311 1310 1310 1310 1311 1311 1313 1314 1316 1318 1320 1323 1326 1329 1333 1337 1341 1345 1349 1354 1358 1363 1367 1371 1375 1380
1324 1323 1321 1319 1318 1316 1314 1313 1312 1311 1310 1310 1309 1308 1308 1308 1307 1306 1306 1305 1305 1304 1306 1307 1309 1310 1312 1314 1317 1319 1323 1326 1330 1333 1337 1342 1346 1351 1355 1359 1363 1368 1372 1376
1319 1317 1315 1313 1311 1309 1307 1305 1304 1303 1303 1303 1302 1301 1301 1301 1301 1301 1301 1300 1300 1301 1302 1304 1305 1306 1308 1311 1313 1316 1319 1322 1326 1329 1334 1338 1342 1346 1351 1356 1360 1364 1368 1372
1314 1311 1309 1306 1304 1302 1300 1299 1297 1296 1295 1295 1295 1294 1294 1295 1296 1296 1296 1295 1296 1298 1299 1300 1301 1303 1305 1307 1310 1312 1315 1319 1322 1326 1330 1334 1339 1343 1347 1352 1357 1361 1365 1369
1309 1306 1303 1301 1298 1295 1293 1292 1290 1289 1288 1288 1288 1289 1289 1289 1290 1290 1291 1291 1292 1294 1295 1296 1298 1300 1302 1304 1307 1309 1312 1316 1319 1323 1328 1332 1336 1340 1344 1349 1353 1358 1362 1366
1305 1301 1298 1295 1292 1289 1286 1285 1284 1283 1282 1282 1283 1283 1283 1284 1285 1286 1285 1287 1289 1290 1292 1293 1295 1298 1300 1302 1304 1307 1310 1313 1317 1321 1325 1330 1334 1338 1342 1346 1351 1355 1359 1363
1300 1296 1293 1290 1286 1283 1280 1279 1278 1277 1277 1277 1278 1278 1279 1280 1280 1281 1283 1284 1286 1287 1289 1291 1294 1296 1298 1300 1303 1306 1309 1312 1316 1320 1324 1328 1332 1336 1340 1345 1349 1353 1357 1361
1295 1292 1289 1285 1282 1279 1277 1275 1273 1273 1273 1273 1273 1275 1276 1276 1277 1278 1280 1281 1283 1285 1287 1289 1292 1294 1297 1299 1302 1305 1308 1312 1315 1319 1323 1327 1331 1335 1339 1343 1347 1351 1355 1359
1291 1288 1285 1282 1280 1277 1274 1272 1271 1270 1270 1270 1271 1272 1273 1274 1275 1277 1278 1280 1282 1284 1286 1288 1291 1293 1296 1299 1302 1305 1308 1312 1316 1320 1323 1327 1330 1334 1338 1342 1346 1350 1354 1357
1287 1285 1281 1278 1276 1274 1272 1270 1269 1268 1268 1268 1268 1269 1270 1272 1274 1275 1277 1279 1281 1283 1286 1288 1291 1293 1296 1299 1302 1305 1309 1312 1316 1320 1323 1327 1330 1334 1338 1342 1345 1349 1352 1356